Flag for Spain Weather past 2 weeks in Santa Cruz de Tenerife, Canary Islands, Spain

Now
55 °F

Fog.


Feels Like: 55 °F
Forecast: 65 / 72 °F
Wind: 5 mph from Southeast

Location: Tenerife / Los Rodeos

Current Time: Dec 19, 2014 at 9:40:17 AM

Latest Report: Dec 19, 2014 at 9:00 AM


Visibility: 4 mi

Pressure: 30.39 "Hg

Humidity: 100%

Dew point: 55 °F

Location of Santa Cruz de TenerifeLocation

Historic Weather in Santa Cruz de Tenerife — Graph

°F

Santa Cruz de Tenerife temperature yesterday

Maximum temperature yesterday: 59 °F (at 11:30 AM)
Minimum temperature yesterday: 55 °F (at 6:00 AM)
Average temperature yesterday: 57 °F

Past Weeks' High & Low Weather Summary

 TemperatureHumidityPressure
High64 °F (Dec 10, 1:00 PM)100% (Dec 6, 8:00 AM)30.42 "Hg (Dec 6, 8:00 AM)
Low50 °F (Dec 6, 7:00 AM)41% (Dec 12, 6:00 AM)30.12 "Hg (Dec 13, 3:00 PM)
Average56 °F86%30.29 "Hg
* Reported Dec 4 8:00 AM — Dec 19 8:30 AM, Santa Cruz de Tenerife, Weather by CustomWeather, © 2014

Note: Actual official high and low records may vary slightly from our data, if they occured in-between our weather recording intervals... More about our weather records

Advertising

Santa Cruz de Tenerife weather history for previous 24 hours

 ConditionsComfort  
Time TempWeatherWind HumidityBarometerVisibility
8:30 AM
Dec 19
55 °FFog.7 mph100%30.39 "Hg4 mi
8:00 AM55 °FFog.8 mph100%30.36 "Hg5 mi
7:30 AM55 °FPartly cloudy.8 mph100%30.36 "Hg6 mi
7:00 AM55 °FPartly cloudy.6 mph100%30.33 "Hg5 mi
6:00 AM55 °FPartly cloudy.3 mph100%30.33 "Hg4 mi
11:00 PM
Dec 18
57 °FPassing clouds.2 mph88%30.33 "HgN/A
10:30 PM57 °FPassing clouds.1 mph88%30.33 "HgN/A
10:00 PM57 °FPassing clouds.No wind88%30.33 "HgN/A
9:30 PM57 °FPassing clouds.No wind88%30.33 "HgN/A
9:00 PM57 °FPassing clouds.No wind88%30.33 "HgN/A
8:30 PM57 °FPassing clouds.2 mph82%30.33 "HgN/A
8:00 PM57 °FPassing clouds.1 mph82%30.30 "HgN/A
7:30 PM57 °FPassing clouds.1 mph88%30.30 "HgN/A
7:00 PM57 °FPassing clouds.3 mph88%30.30 "HgN/A
6:30 PM57 °FPassing clouds.3 mph88%30.30 "HgN/A
6:00 PM57 °FPartly sunny.5 mph88%30.27 "HgN/A
5:30 PM57 °FPartly sunny.5 mph88%30.27 "HgN/A
5:00 PM57 °FPartly sunny.8 mph82%30.27 "HgN/A
4:30 PM57 °FPartly sunny.9 mph88%30.27 "HgN/A
4:00 PM57 °FPartly sunny.9 mph82%30.27 "HgN/A
3:30 PM57 °FPartly sunny.8 mph88%30.27 "HgN/A
3:00 PM59 °FPartly sunny.10 mph88%30.27 "HgN/A
2:30 PM59 °FBroken clouds.10 mph82%30.27 "HgN/A
2:00 PM59 °FBroken clouds.6 mph77%30.27 "Hg6 mi
1:30 PM59 °FBroken clouds.7 mph82%30.30 "Hg6 mi
1:00 PM59 °FBroken clouds.6 mph82%30.30 "Hg6 mi
12:30 PM59 °FPartly sunny.5 mph82%30.33 "Hg6 mi
12:00 PM59 °FPartly sunny.5 mph82%30.33 "Hg6 mi
11:30 AM59 °FPartly sunny.3 mph82%30.33 "Hg6 mi
11:00 AM57 °FPartly sunny.3 mph88%30.33 "Hg6 mi
10:30 AM57 °FPartly sunny.2 mph88%30.33 "Hg6 mi
10:00 AM57 °FBroken clouds.No wind88%30.33 "Hg6 mi
9:30 AM55 °FBroken clouds.No wind94%30.33 "Hg6 mi
9:00 AM55 °FBroken clouds.1 mph94%30.30 "Hg6 mi
Weather by CustomWeather, © 2014

See weather overviewHow to use our weather pages